Flag for Yemen Weather past 2 weeks in Al Hudaydah, Yemen

Now
82 °F

Clear.


Feels Like: 88 °F
Forecast: 85 / 98 °F
Wind: 3 mph from Northeast

Location: Hodeidah

Current Time: Sep 18, 2014 at 7:46:14 AM

Latest Report: Sep 18, 2014 at 7:00 AM


Visibility: 5 mi

Pressure: 29.71 "Hg

Humidity: 74%

Dew point: 73 °F

Location of Al HudaydahLocation

Historic Weather in Al Hudaydah — Graph

°F

Al Hudaydah temperature yesterday

Maximum temperature yesterday: 95 °F (at 10:00 AM)
Minimum temperature yesterday: 82 °F (at 4:00 AM)
Average temperature yesterday: 89 °F

Past Weeks' High & Low Weather Summary

 TemperatureHumidityPressure
High99 °F (Sep 14, 1:00 PM)100% (Sep 10, 11:00 AM)29.83 "Hg (Sep 10, 11:00 AM)
Low75 °F (Sep 10, 11:00 AM)37% (Sep 14, 2:00 PM)29.56 "Hg (Sep 3, 4:00 PM)
Average90 °F65%29.70 "Hg
* Reported Sep 3 7:00 AM — Sep 18 7:00 AM, Al Hudaydah, Weather by CustomWeather, © 2014

Note: Actual official high and low records may vary slightly from our data, if they occured in-between our weather recording intervals... More about our weather records

Advertising

Al Hudaydah weather history for previous 24 hours

 ConditionsComfort  
Time TempWeatherWind HumidityBarometerVisibility
7:00 AM
Sep 18
82 °FClear.3 mph74%29.71 "Hg5 mi
6:00 AM82 °FClear.3 mph79%29.71 "Hg4 mi
1:00 AM86 °FClear.3 mph70%29.68 "Hg10 mi
12:00 AM86 °FPassing clouds.5 mph70%29.68 "HgN/A
8:00 PM
Sep 17
82 °FPassing clouds.12 mph66%29.71 "HgN/A
7:00 PM82 °FThunderstorms. Passing clouds.9 mph62%29.71 "Hg3 mi
6:24 PM88 °FThunderstorms. Passing clouds.35 mph59%29.74 "Hg0 mi
6:00 PM91 °FThunderstorms. Scattered clouds.17 mph63%29.65 "HgN/A
4:00 PM93 °FThunderstorms. Scattered clouds.14 mph56%29.62 "HgN/A
3:00 PM95 °FPassing clouds.14 mph63%29.62 "HgN/A
2:00 PM95 °FThunderstorms. Passing clouds.13 mph56%29.65 "HgN/A
1:00 PM95 °FScattered clouds.14 mph60%29.68 "HgN/A
12:00 PM95 °FPassing clouds.9 mph63%29.71 "Hg6 mi
11:00 AM93 °FScattered clouds.12 mph59%29.71 "Hg5 mi
10:00 AM95 °FScattered clouds.9 mph63%29.74 "Hg4 mi
9:00 AM91 °FPassing clouds.5 mph63%29.74 "Hg4 mi
8:00 AM86 °FScattered clouds.3 mph62%29.74 "Hg4 mi
7:00 AM84 °FPassing clouds.5 mph74%29.71 "Hg4 mi
Weather by CustomWeather, © 2014

See weather overviewHow to use our weather pages